Wind_Speed
13 14 15 15 16 17 18 20 20 20 20 21 19 18 16 15 15 14 14 13 13 12 12 12 12 12 12 11 12 12 12 13 13 13 13 13 14 14 15 15 16 16 17
13 14 15 16 16 17 18 19 19 20 20 20 20 19 17 16 16 15 15 14 14 14 13 13 13 13 13 13 14 14 14 15 15 15 15 15 15 16 17 17 18 18 19
12 13 14 16 17 18 18 19 19 20 20 19 20 19 18 16 16 16 15 15 15 14 14 14 13 14 14 15 15 16 17 16 16 16 16 17 17 18 19 19 20 21 21
12 13 13 14 16 17 18 19 19 20 20 20 20 20 18 18 17 17 16 15 15 15 14 14 15 15 15 16 16 17 17 17 17 17 18 19 20 21 21 22 23 23 24
13 14 14 15 17 18 18 18 19 21 22 21 21 20 19 18 18 17 16 16 16 16 16 16 16 16 17 17 18 18 18 18 19 19 20 21 22 23 24 24 25 26 27
15 15 16 17 17 19 20 20 20 21 21 22 21 20 20 19 19 18 17 17 17 17 17 17 18 18 19 19 19 19 20 20 21 22 22 23 24 25 26 27 28 29 29
16 17 17 18 18 19 20 21 21 21 21 21 20 20 20 20 20 20 19 19 19 19 19 19 19 20 20 21 21 22 22 23 23 23 24 25 26 27 28 29 30 32 33
16 17 18 19 19 20 21 21 22 22 21 20 20 20 21 21 21 20 20 21 21 21 21 22 22 22 22 23 24 25 25 26 26 26 27 28 29 30 31 32 33 34 35
16 17 18 18 19 20 21 22 22 22 21 21 21 21 21 21 21 21 21 21 22 22 23 23 23 24 25 25 25 26 27 28 28 29 29 30 32 33 34 35 36 37 38
16 17 18 19 20 21 21 22 22 22 22 21 21 21 21 21 21 21 22 22 23 23 24 25 26 26 27 27 27 27 28 29 30 30 32 33 34 35 37 38 40 41 41
16 18 19 20 20 21 22 22 23 23 23 23 23 23 23 22 22 22 23 24 24 25 26 27 27 28 28 29 28 28 30 31 32 32 34 35 37 38 39 41 42 43 44
17 19 19 20 20 21 21 22 22 23 24 23 23 23 23 23 24 24 24 24 25 26 26 27 27 28 29 29 30 31 32 33 34 35 36 38 39 40 41 43 44 45 46
18 18 19 20 20 20 21 21 22 22 23 23 23 24 24 24 24 24 24 25 25 26 27 27 28 29 31 31 32 33 35 36 36 37 39 40 42 42 43 44 45 47 48
20 20 21 20 21 21 21 21 21 21 22 22 23 24 24 24 24 25 26 27 27 28 29 29 30 31 32 33 34 35 36 37 38 39 40 42 43 44 45 46 47 48 48
19 19 20 22 21 21 21 22 22 22 23 23 24 24 24 25 26 27 28 29 29 30 30 30 31 32 33 34 35 36 37 39 40 41 42 43 44 46 47 48 49 49 49
18 18 19 20 21 21 21 21 22 22 22 23 24 24 25 26 27 28 29 29 30 30 31 32 33 34 35 36 37 38 39 41 42 43 44 45 46 47 48 49 50 50 50
19 19 19 20 20 21 21 21 22 23 24 24 25 25 26 27 28 29 30 31 32 33 34 35 36 36 37 38 39 40 42 43 44 45 45 46 47 48 49 50 50 50 50
20 20 20 21 22 22 22 23 24 25 25 26 27 28 29 29 30 31 32 33 34 35 35 36 37 38 39 40 41 42 44 45 45 46 47 47 48 49 49 49 50 50 51
21 21 21 21 21 22 23 25 25 26 27 27 28 30 31 31 32 33 33 34 35 36 37 38 39 41 42 42 43 44 45 46 47 47 47 48 48 48 48 49 50 50 51
22 22 22 22 22 23 24 25 26 27 28 29 30 31 32 33 33 33 33 34 35 36 38 39 41 42 43 44 45 46 47 47 47 48 48 48 48 49 49 49 50 50 50
22 22 23 23 24 25 26 26 27 28 29 30 30 31 31 32 32 33 33 34 35 36 38 41 43 43 44 45 47 48 48 47 47 48 48 48 48 49 49 49 49 49 48
22 22 24 25 25 26 27 28 28 29 29 30 30 31 32 32 32 32 34 35 37 38 40 42 43 43 45 47 48 47 47 48 48 48 47 47 47 48 48 48 47 47 46
23 24 24 25 26 26 27 28 29 29 30 31 30 31 32 33 34 35 36 38 40 41 41 42 44 45 46 47 46 46 46 46 46 46 46 46 46 46 46 45 45 45 44
24 25 26 26 27 27 27 28 29 29 30 30 31 32 33 34 36 38 39 41 42 43 43 44 45 45 45 44 44 43 43 43 44 44 44 44 44 44 43 43 42 42 42
22 23 24 24 25 26 27 28 29 29 29 30 31 33 33 34 36 38 40 41 42 42 42 43 44 44 43 42 42 42 42 43 43 43 43 42 42 41 41 40 40 39 39
21 22 22 23 24 25 25 26 27 28 29 30 31 32 34 36 38 39 41 41 41 41 42 42 42 42 41 41 41 41 42 42 43 42 41 41 40 39 38 37 36 35 34
Wind_Direction
235 233 229 228 226 222 216 212 212 212 212 209 210 213 215 218 221 225 231 237 243 247 253 260 266 269 272 275 279 282 284 287 289 290 290 291 293 294 295 294 293 293 293
235 232 229 227 226 221 214 211 213 211 210 210 212 216 219 221 224 229 234 240 245 250 255 260 266 270 274 278 280 282 284 285 286 288 289 290 291 293 294 294 294 294 294
233 230 229 227 223 214 211 209 208 208 211 214 217 219 221 223 229 233 237 241 246 252 257 260 266 271 276 279 281 283 284 284 285 286 287 289 290 292 294 295 295 294 294
233 228 224 218 212 208 207 209 208 210 213 217 220 223 225 228 231 235 239 243 248 253 258 261 266 271 276 280 282 284 285 285 285 285 286 288 289 290 292 292 292 293 293
231 228 222 214 211 211 211 212 213 214 216 219 222 225 227 229 233 237 241 245 250 255 259 262 267 273 278 281 282 283 283 284 284 284 285 287 288 289 290 291 291 291 292
231 227 221 215 215 215 216 217 219 219 220 222 223 225 228 231 235 238 244 251 255 259 261 265 270 275 279 281 281 282 283 284 284 284 285 286 288 289 289 290 290 291 291
229 224 222 222 220 219 219 219 220 220 222 224 227 229 230 233 237 241 248 254 258 262 264 266 271 275 279 281 281 282 282 284 285 286 286 287 288 289 290 290 290 290 291
226 223 224 223 222 221 220 219 220 221 222 225 228 233 234 237 241 247 254 257 260 264 266 267 271 275 278 280 282 282 283 284 286 286 286 287 289 290 291 292 292 293 293
226 222 222 222 222 221 220 221 223 224 225 227 231 233 236 240 245 252 259 258 259 263 266 269 272 275 278 281 283 284 284 284 285 286 286 287 289 290 292 292 292 292 292
225 223 223 224 222 221 222 224 226 226 227 230 233 236 240 245 252 257 259 261 263 265 268 270 272 276 281 283 284 285 286 287 288 288 288 288 289 290 291 292 293 293 293
229 227 226 224 222 222 224 226 227 228 230 234 236 238 243 249 255 259 263 266 265 267 270 273 276 279 283 284 285 286 287 287 288 288 289 289 289 290 291 292 293 293 293
232 230 228 228 226 224 226 228 231 233 235 238 240 243 246 250 256 260 265 269 270 270 272 275 277 279 282 284 286 287 287 287 288 289 290 290 291 291 291 292 293 292 292
231 230 229 229 228 227 229 232 235 238 240 242 245 247 250 254 259 263 268 271 273 273 274 276 278 281 282 284 286 286 288 288 289 290 291 292 292 293 293 293 293 293 293
231 230 230 229 230 231 232 233 235 238 242 245 249 252 254 257 260 263 267 270 272 274 276 278 280 281 282 284 287 288 289 289 289 290 292 293 293 293 293 292 292 293 293
232 231 230 230 232 235 236 236 236 241 246 249 252 255 259 262 264 265 268 271 273 275 276 279 281 282 283 285 286 287 289 290 291 291 292 293 293 293 293 293 293 294 294
236 235 234 234 236 238 239 241 244 247 251 253 257 260 263 267 268 269 271 272 274 276 278 280 282 284 285 286 287 289 291 291 292 293 293 293 293 293 294 294 294 294 294
235 236 237 238 240 242 245 248 251 254 256 258 261 264 268 270 270 272 274 275 276 278 279 280 282 283 285 286 288 290 291 292 293 293 292 292 293 294 295 295 295 295 294
238 240 242 243 244 246 249 252 255 258 261 263 265 267 269 271 273 274 276 278 278 279 281 282 283 284 286 287 288 290 292 293 293 292 293 293 293 294 295 295 295 294 294
243 243 244 246 248 249 252 255 257 260 263 265 268 270 271 272 274 276 278 279 279 279 281 283 285 286 287 288 290 291 292 292 293 293 293 294 295 295 295 295 295 295 295
247 247 249 251 253 255 258 260 262 265 267 268 269 271 273 276 277 278 279 280 281 282 283 285 287 288 289 290 291 292 293 293 293 293 293 294 294 295 295 295 294 295 295
250 251 253 257 259 261 263 265 267 269 270 271 273 273 275 279 280 280 282 283 285 286 287 288 289 289 290 291 291 292 293 293 293 293 294 294 294 295 294 294 295 296 297
253 256 258 260 262 264 266 268 269 271 273 274 277 278 278 279 281 282 283 285 286 287 289 290 290 290 291 292 292 293 293 293 294 294 295 294 295 295 296 296 296 297 297
257 260 262 264 265 266 268 271 272 273 274 275 277 279 281 283 284 285 286 287 288 289 290 291 291 292 293 293 293 293 294 295 295 296 296 296 296 296 296 296 297 297 297
261 262 265 266 267 268 271 271 271 274 276 276 278 281 284 285 285 287 288 289 290 292 292 293 293 294 294 294 295 296 297 298 298 299 298 297 297 297 297 297 297 298 298
264 265 268 270 271 272 273 273 274 277 279 281 283 285 286 287 288 289 291 292 294 295 295 296 296 296 297 297 297 298 298 298 299 299 299 299 299 298 298 299 299 299 299
269 270 270 271 273 274 276 278 279 280 282 285 287 288 289 290 291 293 294 295 296 296 297 297 298 298 298 298 299 299 299 299 299 299 299 299 299 300 300 300 301 301 301
Height
5830 5831 5832 5834 5836 5838 5840 5843 5846 5849 5851 5855 5858 5860 5862 5864 5866 5867 5869 5870 5870 5871 5872 5872 5872 5872 5872 5871 5871 5870 5869 5868 5867 5866 5865 5864 5862 5861 5859 5857 5856 5854 5852
5826 5827 5829 5831 5833 5835 5837 5839 5842 5845 5848 5851 5854 5857 5859 5861 5862 5864 5865 5866 5867 5868 5868 5868 5868 5868 5868 5868 5867 5866 5865 5864 5863 5862 5861 5860 5858 5857 5855 5853 5852 5850 5848
5823 5824 5825 5827 5829 5831 5833 5836 5839 5842 5845 5848 5851 5853 5855 5857 5859 5860 5861 5862 5863 5864 5864 5865 5865 5864 5864 5863 5863 5862 5861 5860 5859 5858 5856 5855 5854 5852 5850 5849 5846 5845 5842
5819 5820 5822 5823 5825 5828 5830 5833 5836 5839 5842 5845 5847 5850 5852 5853 5855 5856 5858 5859 5860 5860 5860 5861 5861 5860 5860 5859 5858 5857 5856 5855 5854 5853 5851 5850 5848 5846 5845 5843 5841 5839 5836
5816 5817 5818 5820 5822 5825 5828 5830 5833 5835 5838 5841 5843 5846 5848 5850 5851 5853 5854 5855 5855 5856 5856 5856 5856 5856 5855 5854 5853 5852 5851 5850 5849 5848 5846 5844 5843 5840 5838 5836 5834 5832 5830
5813 5814 5815 5817 5819 5822 5825 5827 5829 5831 5834 5836 5839 5842 5844 5846 5847 5849 5850 5850 5851 5851 5851 5852 5851 5851 5850 5849 5848 5847 5846 5845 5843 5842 5840 5838 5836 5834 5831 5829 5827 5825 5822
5808 5810 5812 5814 5816 5819 5821 5823 5825 5828 5830 5833 5835 5837 5839 5841 5843 5844 5845 5846 5846 5846 5846 5846 5846 5845 5844 5843 5842 5841 5840 5838 5837 5836 5834 5831 5829 5826 5824 5822 5819 5816 5813
5804 5806 5808 5810 5812 5814 5817 5819 5821 5824 5827 5829 5831 5833 5835 5837 5838 5839 5840 5840 5841 5840 5840 5840 5840 5839 5838 5837 5836 5835 5833 5831 5830 5828 5826 5824 5821 5818 5816 5813 5810 5808 5805
5801 5802 5804 5806 5809 5810 5813 5816 5818 5821 5823 5825 5827 5829 5830 5831 5833 5834 5834 5835 5835 5835 5834 5834 5834 5833 5832 5831 5829 5828 5826 5824 5822 5820 5818 5816 5813 5810 5807 5804 5801 5798 5795
5797 5799 5801 5803 5805 5807 5809 5812 5814 5817 5819 5821 5822 5824 5825 5827 5828 5829 5829 5829 5829 5829 5828 5828 5827 5826 5825 5823 5822 5820 5818 5816 5814 5812 5810 5807 5804 5800 5797 5794 5791 5787 5783
5793 5795 5797 5799 5801 5803 5805 5807 5810 5812 5814 5816 5817 5819 5820 5822 5822 5823 5823 5823 5822 5822 5821 5820 5820 5819 5817 5816 5814 5812 5810 5808 5805 5803 5801 5798 5794 5791 5787 5783 5780 5775 5771
5789 5791 5794 5795 5797 5799 5801 5803 5805 5807 5809 5810 5812 5813 5814 5815 5816 5816 5816 5816 5815 5815 5814 5813 5812 5811 5810 5808 5806 5804 5801 5799 5797 5794 5791 5788 5784 5780 5776 5772 5768 5763 5759
5785 5787 5789 5791 5793 5795 5797 5799 5801 5802 5804 5805 5806 5807 5808 5809 5810 5810 5810 5809 5808 5808 5807 5806 5805 5803 5801 5799 5797 5795 5793 5790 5787 5784 5781 5777 5773 5769 5765 5761 5756 5751 5746
5781 5783 5785 5787 5789 5790 5792 5794 5796 5797 5798 5800 5801 5802 5802 5803 5803 5803 5803 5802 5801 5800 5799 5798 5797 5795 5793 5791 5788 5786 5783 5780 5776 5773 5770 5766 5762 5758 5753 5748 5744 5739 5734
5776 5778 5780 5782 5784 5786 5788 5789 5790 5792 5793 5794 5795 5796 5796 5796 5796 5796 5795 5794 5793 5792 5791 5790 5788 5787 5784 5782 5779 5776 5773 5769 5766 5762 5758 5754 5750 5745 5740 5735 5730 5725 5720
5772 5773 5775 5777 5779 5781 5782 5783 5785 5786 5787 5788 5788 5789 5789 5789 5788 5788 5787 5786 5785 5784 5783 5781 5779 5777 5774 5772 5769 5765 5762 5758 5754 5750 5746 5742 5737 5732 5727 5722 5716 5711 5706
5767 5769 5770 5772 5774 5775 5777 5778 5779 5780 5780 5781 5781 5782 5782 5781 5781 5780 5779 5777 5776 5775 5773 5771 5769 5766 5763 5760 5757 5754 5750 5746 5742 5737 5733 5728 5723 5718 5713 5708 5702 5697 5691
5763 5764 5766 5767 5768 5770 5771 5772 5773 5773 5773 5773 5774 5774 5774 5773 5772 5771 5770 5768 5766 5764 5762 5760 5758 5755 5752 5749 5745 5742 5738 5733 5729 5724 5720 5715 5710 5705 5699 5694 5688 5682 5677
5757 5759 5760 5762 5762 5764 5764 5765 5765 5766 5765 5765 5765 5765 5765 5764 5763 5762 5760 5758 5756 5754 5752 5749 5747 5744 5740 5737 5733 5729 5725 5720 5715 5711 5706 5701 5696 5691 5685 5680 5674 5668 5662
5752 5753 5754 5755 5756 5757 5757 5758 5758 5758 5758 5757 5757 5756 5755 5754 5753 5752 5749 5748 5745 5743 5741 5738 5735 5732 5728 5724 5720 5716 5711 5707 5702 5697 5692 5687 5682 5676 5671 5666 5660 5654 5649
5745 5746 5748 5749 5749 5749 5750 5750 5750 5750 5749 5748 5748 5746 5746 5745 5743 5742 5740 5737 5735 5732 5729 5726 5723 5719 5715 5711 5707 5702 5698 5693 5688 5683 5678 5673 5668 5662 5657 5651 5646 5640 5635
5739 5740 5741 5742 5742 5742 5742 5742 5742 5741 5741 5740 5739 5738 5736 5735 5733 5731 5729 5727 5724 5720 5717 5714 5710 5706 5702 5698 5693 5688 5683 5679 5674 5669 5664 5658 5653 5648 5642 5637 5632 5627 5621
5733 5734 5735 5735 5735 5735 5735 5734 5733 5733 5732 5730 5729 5728 5727 5724 5722 5720 5717 5715 5712 5708 5705 5700 5696 5692 5688 5683 5679 5674 5669 5664 5660 5655 5649 5644 5639 5634 5629 5624 5619 5614 5609
5726 5727 5728 5728 5727 5727 5726 5725 5724 5723 5722 5721 5720 5718 5716 5714 5712 5709 5706 5702 5699 5695 5691 5687 5683 5679 5674 5669 5664 5660 5655 5650 5646 5641 5636 5631 5626 5621 5616 5611 5606 5601 5597
5720 5720 5720 5719 5719 5718 5717 5716 5716 5715 5714 5712 5710 5708 5706 5703 5700 5697 5693 5690 5686 5682 5678 5673 5669 5665 5661 5656 5651 5647 5642 5637 5633 5628 5623 5618 5613 5608 5604 5599 5595 5590 5585
5713 5713 5713 5712 5711 5710 5709 5708 5707 5705 5704 5702 5700 5697 5695 5692 5689 5685 5681 5678 5673 5669 5665 5660 5656 5652 5647 5643 5638 5634 5629 5625 5620 5615 5610 5606 5601 5597 5592 5588 5584 5580 5576